Location: Brno
(49.2000°N, 16.6330°E)
Time: 18:50:54
(UTC+02:00)

ISS - Visible Passes

Search period start: 23 May 2018 00:00
Search period end: 02 June 2018 00:00
Orbit: 402 x 407 km, 51.6° (Epoch: 24 May)

Date Brightness Start Highest point End Pass type
(mag) Time Alt. Az. Time Alt. Az. Time Alt. Az.
23 May -3.1 00:38:38 10° WNW 00:41:51 53° N 00:45:04 10° E visible
23 May -4.0 02:15:12 10° WNW 02:18:28 78° SSW 02:21:44 10° ESE visible
23 May -2.3 03:52:17 10° W 03:54:33 18° SW 03:56:49 10° S visible
23 May -4.0 22:09:43 10° WSW 22:12:59 73° SSE 22:16:15 10° ENE visible
23 May -3.1 23:46:22 10° W 23:49:35 54° N 23:52:49 10° ENE visible
24 May -3.8 01:23:01 10° WNW 01:26:17 78° NNE 01:27:54 27° E visible
24 May -1.6 02:59:43 10° W 03:07:34 - SE 03:00:18 14° W visible
24 May -3.6 21:17:41 10° SW 21:20:51 48° SSE 21:24:01 10° ENE visible
24 May -3.3 22:54:05 10° W 22:57:19 60° N 23:00:34 10° ENE visible
25 May -3.4 00:30:48 10° WNW 00:34:03 62° N 00:35:43 25° E visible
25 May -1.8 02:07:22 10° WNW 02:08:18 17° W 02:08:18 17° W visible
25 May -3.6 22:01:48 10° WSW 22:05:04 74° NNW 22:08:21 10° ENE visible
25 May -3.1 23:38:33 10° WNW 23:41:46 54° N 23:44:38 13° E visible
26 May -2.9 01:15:06 10° WNW 01:17:14 37° W 01:17:14 37° W visible
26 May -3.0 22:46:16 10° W 22:49:28 53° N 22:52:41 10° ENE visible
27 May -3.9 00:22:52 10° WNW 00:26:09 86° NNE 00:26:24 74° E visible
27 May -3.1 21:53:56 10° W 21:57:10 57° N 22:00:24 10° ENE visible
27 May -3.5 23:30:37 10° WNW 23:33:53 66° NNE 23:35:39 24° E visible
28 May -1.8 01:07:12 10° W 01:08:17 18° W 01:08:17 18° W visible
28 May -3.2 22:38:20 10° WNW 22:41:34 56° N 22:44:48 10° E visible
29 May -3.5 00:14:53 10° WNW 00:17:36 50° WSW 00:17:36 50° WSW visible
29 May -3.0 21:46:01 10° WNW 21:49:15 53° N 21:52:28 10° E visible
29 May -4.0 23:22:36 10° WNW 23:25:53 85° SSW 23:26:58 39° ESE visible
30 May -1.1 00:59:32 10° W 00:59:35 10° W 00:59:35 10° W visible
30 May -3.6 22:30:19 10° WNW 22:33:36 72° NNE 22:36:21 14° E visible
31 May -2.4 00:06:58 10° W 00:08:59 26° WSW 00:08:59 26° WSW visible
31 May -3.3 21:38:00 10° WNW 21:41:16 59° N 21:44:30 10° E visible
31 May -3.6 23:14:34 10° WNW 23:17:45 50° SSW 23:18:23 42° SSE visible
01 Jun -3.9 22:22:13 10° WNW 22:25:30 76° SSW 22:27:49 18° ESE visible
